Wiscasset, ME

11:46 PM EST on November 24, 2017 (GMT -0500)
Wiscasset

Weather History for KIWI - May, 2014

Change the Weather History Date:

Wednesday, May 7, 2014

  Actual Average Record
Temperature  
Mean Temperature 53 °F -  
Max Temperature 66 °F 59 °F 82 °F (2015)
Min Temperature 39 °F 37 °F 28 °F (2001)
Degree Days  
Heating Degree Days 12    
Growing Degree Days 3 (Base 50)    
Moisture  
Dew Point 35 °F    
Average Humidity 54    
Maximum Humidity 83    
Minimum Humidity 32    
Precipitation  
Precipitation 0.00 in - - ()
Sea Level Pressure  
Sea Level Pressure 30.11 in    
Wind  
Wind Speed 4 mph (WSW)    
Max Wind Speed 14 mph    
Max Gust Speed 20 mph    
Visibility 10 miles    
Events      
Averages and records for this station are not official NWS values.
T = Trace of Precipitation, MM = Missing Value Source: NWS Daily Summary

Daily Weather History Graph

Daily Weather History Graph

Search for Another Location

Airport or City:

Trip Planner

Search our weather history database for the weather conditions in past years. The results will help you decide how hot, cold, wet, or windy it might be!

Date:

Astronomy

May. 07, 2014 Rise Set
Actual Time 5:22 AM EDT 7:49 PM EDT
Civil Twilight 4:50 AM EDT 8:21 PM EDT
Nautical Twilight 4:09 AM EDT 9:02 PM EDT
Astronomical Twilight 3:24 AM EDT 9:47 PM EDT
Moon 12:36 PM EDT (5/7) 1:34 AM EDT (5/7)
Length of Visible Light 15h 31m
Length of Day
14h 26m
First Quarter, 55% of the Moon is Illuminated
May 7
First Quarter
May 14
Full
May 21
Last Quarter
May 28
New
Jun 5
First Quarter

Hourly Weather History & Observations

Time (EDT) Temp. Windchill Dew Point Humidity Pressure Visibility Wind Dir Wind Speed Gust Speed Precip Events Conditions
12:53 AM 46.9 °F - 35.1 °F 63% 30.01 in 10.0 mi Variable 3.5 mph - N/A   Clear
1:53 AM 46.0 °F 44.8 °F 35.1 °F 66% 30.02 in 10.0 mi Variable 3.5 mph - N/A   Partly Cloudy
2:53 AM 46.0 °F 43.9 °F 35.1 °F 66% 30.03 in 10.0 mi Variable 4.6 mph - N/A   Clear
3:53 AM 44.1 °F 42.5 °F 35.1 °F 71% 30.05 in 10.0 mi NW 3.5 mph - N/A   Clear
4:53 AM 44.1 °F - 35.1 °F 71% 30.06 in 10.0 mi Calm Calm - N/A   Clear
5:53 AM 42.1 °F - 35.1 °F 76% 30.09 in 10.0 mi Calm Calm - N/A   Clear
6:53 AM 48.0 °F - 36.0 °F 63% 30.11 in 10.0 mi NW 3.5 mph - N/A   Clear
7:53 AM 51.1 °F - 36.0 °F 56% 30.13 in 10.0 mi Variable 4.6 mph - N/A   Clear
8:53 AM 55.0 °F - 35.1 °F 47% 30.14 in 10.0 mi Variable 5.8 mph - N/A   Clear
9:53 AM 57.9 °F - 35.1 °F 42% 30.13 in 10.0 mi Variable 3.5 mph - N/A   Clear
10:53 AM 61.0 °F - 36.0 °F 39% 30.13 in 10.0 mi Variable 3.5 mph - N/A   Clear
11:53 AM 62.1 °F - 33.1 °F 34% 30.14 in 10.0 mi Variable 4.6 mph - N/A   Clear
2:53 PM 64.9 °F - 34.0 °F 32% 30.12 in 10.0 mi North - - N/A   Overcast
3:53 PM 63.0 °F - 34.0 °F 34% 30.11 in 10.0 mi SW 13.8 mph 19.6 mph N/A   Scattered Clouds
4:53 PM 63.0 °F - 33.1 °F 33% 30.12 in 10.0 mi WSW 9.2 mph - N/A   Partly Cloudy
5:53 PM 59.0 °F - 32.0 °F 36% 30.12 in 10.0 mi WSW 8.1 mph - N/A   Clear
6:53 PM 55.9 °F - 34.0 °F 44% 30.13 in 10.0 mi SW 9.2 mph - N/A   Clear
7:53 PM 53.1 °F - 34.0 °F 48% 30.15 in 10.0 mi SW 5.8 mph - N/A   Clear
8:53 PM 51.1 °F - 34.0 °F 52% 30.17 in 10.0 mi SSW 3.5 mph - N/A   Clear
9:53 PM 48.0 °F - 36.0 °F 63% 30.18 in 10.0 mi Calm Calm - N/A   Clear
10:53 PM 43.0 °F - 36.0 °F 76% 30.18 in 10.0 mi Calm Calm - N/A   Clear
11:53 PM 39.9 °F - 35.1 °F 83% 30.17 in 10.0 mi Calm Calm - N/A   Clear